Location: Unspecified
(43.4981°N, 0.0000°E)
Time: 00:28:02
(UTC+00:00)

S-56A Canister/Altair - Visible Passes

Search period start: 04 April 2026 00:00
Search period end: 14 April 2026 00:00
Orbit: 632 x 2485 km, 38.9° (Epoch: 28 March)

Date Brightness Start Highest point End Pass type
(mag) Time Alt. Az. Time Alt. Az. Time Alt. Az.
6 Apr 11.7 04:54:19 10° SSE 05:00:17 14° SE 05:06:32 10° E visible
7 Apr 11.8 04:22:53 10° SE 04:25:06 11° ESE 04:27:22 10° ESE visible
10 Apr 11.2 04:33:03 10° S 04:42:04 24° SE 04:52:24 10° E visible
11 Apr 11.2 03:59:09 10° SSE 04:06:52 19° SE 04:15:41 10° E visible
12 Apr 11.2 03:25:43 10° SSE 03:31:45 15° SE 03:38:32 10° E visible
13 Apr 11.3 02:53:24 10° SE 02:56:44 12° ESE 03:00:18 10° ESE visible
13 Apr 10.8 04:48:53 10° SSW 04:59:25 39° SE 05:12:26 10° E visible
